User: anonymous   Login
Location: Caltech
(34.1382°N, 118.1253°W)
Time: 09:55:11
(UTC-07:00)
Language:

HO-68 - Orbit

View from above orbital plane
View from above orbital plane
View from above satellite
View from above satellite

Ground track
Ground track

The orbit data is extracted from the following two-line orbital elements,

1 36122U 09072B   15182.07644185 -.00000059  00000-0 -43517-4 0  9994
2 36122 100.1939 226.3881 0008150 087.0908 273.1162 13.16328037266285
Epoch (UTC): 01 July 2015 01:50:04
Eccentricity: 0.0008150
inclination: 100.1939°
perigee height: 1192 km
apogee height: 1205 km
right ascension of ascending node: 226.3881°
argument of perigee: 87.0908°
revolutions per day: 13.16328037
mean anomaly at epoch: 273.1162°
orbit number at epoch: 26628

The dashed part of the orbit path shows where the satellite is in the earth's shadow,  

DLR